Location: Aula-Vintri
(58.3875°N, 22.4322°E)
Time: 02:49:32
(UTC+00:00)

Cosmos 1818 - Pass Details

Date: 13 October 2019
Orbit: 776 x 798 km, 65.0° (Epoch: 20 November)

Event Time Altitude Azimuth Distance (km) Brightness Sun altitude
Rises 18:14:18 0° 274° (W) 3,305 8.1 -21.8°
Reaches altitude 10° 18:16:52 10° 282° (WNW) 2,377 7.1 -22.1°
Maximum altitude 18:22:04 43° 353° (N) 1,118 4.5 -22.8°
Enters shadow 18:24:39 26° 48° (NE) 1,528 4.8 -23.1°
